FENGYUN 1C DEB

Satellite information

Favourite Embed

Satellite Type and Status

DEBRISIN ORBIT

Key statistics

Satellite FENGYUN 1C DEB at a glance.

Uptime

9494

Days in orbit

Revolutions

≈ 13.9

Per day

Orbit

SSO

Sun Synchronous Orbit

Inclination

98.6

Latest

Satellite identification and parameters

Extended collection of information and parameters for FENGYUN 1C DEB.

Object identification

Identified? True

Debris? True

Object name: FENGYUN 1C DEB

International designator: 1999-025CXQ

Object number (NORAD): 32323

Object ID (CCSDS): 32323

Country: PEOPLES REPUBLIC OF CHINA (PRC)

Current information (Y/N): Y

RCS size: SMALL

Orbital parameters

Period: 103.255 minutes

Inclination: 98.5634 deg

SMA: 7290.68 km

Apoapsis: 1029.097 km

Periapsis: 795.993 km

RAAN: 281.7266 deg

Eccentricy: 0.0159864

Argument of periapsis: 112.6388 deg

Mean anomaly: 249.177 deg

Mean motion: 13.94603376 rev/day

Mean motion (dot): 0.00007724 rev/day2

B* drag term: 0.0052177 1/REarth

Two-line elements (TLE)

Creation date: May 4, 2025, 2:46 p.m.

Reference frame: TEME

Reference center: EARTH

Epoch: May 2, 2025, 9:48 p.m. UTC

TLE line 0: 0 FENGYUN 1C DEB

TLE line 1: 1 32323U 99025CXQ 25122.90870280 .00007724 00000-0 52177-2 0 9998

TLE line 2: 2 32323 98.5634 281.7266 0159864 112.6388 249.1770 13.94603376896830

Live tracking on map

Real-time ground track for satellite FENGYUN 1C DEB.

In-orbit conjunctions

A list of the most updated potential collisions computed for object FENGYUN 1C DEB.

Target Orbit TCA Probability of collision Miss distance Type
CZ-6A DEB LEO 2024-10-07 21:57:24 0.0001716658 540.0 (m) DEBRIS
ALOUETTE 1 (S-27) LEO 2024-08-04 03:48:18 0.0002963139 304.0 (m) PAYLOAD

Associated space launch

Chinese polar orbiting meteorological satellite

FENGYUN 1C DEB was lifted into orbit during the mission ‘Long March 4B | Feng Yun 1C’, on board a Long March 4B space rocket.

The launch took place on May 10, 1999, 1:33 a.m. from Launch Complex 7.

For more information about the launch, click the button.

Launch to space Long March 4B | Feng Yun 1C
Long March 4B | Feng Yun 1C

Agency: N/A

Status: Launch Successful

Launch date: May 10, 1999, 1:33 a.m. UTC

Rocket: Long March 4B

Launch pad: Launch Complex 7

Location: Taiyuan Satellite Launch Center, People's Republic of China

...

Latest news about this satellite

There are no fresh news available about this satellite. Check back as we update our databases every day.


Newsletter sign-up

Weekly statistics, charts and insights to help you stay on top of the space industry.